Weather in Luka

Ukraine / Kyiv Region     49°28′51″N   30°40′52″E
temp.,
°C
wind,
m/s
gust,
m/s
humid.,
%
clouds,
%
prec.,
mm/h
press.,
hPa
HPBL,
m
18 january, mon
mon1823:00−15n118919 0.0 101842
02:00−15nnw129224 0.0 101866
05:00−16nnw229513 0.0 101896
08:00−15n239538 0.0 1019177
11:00−14nnw238199 0.0 1020525
14:00−13nw348099 0.1 1019716
17:00−14nw3588100 0.1 1020385
20:00−14nnw3588100 0.1 1021470
19 january, tue
tue1923:00−15wnw3589100 0.0 1021321
02:00−15wnw4689100 0.0 1022391
05:00−16wnw3591100 0.0 1021361
08:00−17wnw369399 0.0 1022360
11:00−15wnw3486100 0.0 1023399
14:00−13wnw3584100 0.0 1022413
17:00−14wnw2490100 0.0 1022249
20:00−14wsw1291100 0.0 102245
20 january, wed
wed2023:00−14sw129038 0.0 102320
02:00−14ssw238823 0.0 102340
05:00−14s23860 0.0 102244
08:00−13sse34876 0.0 102295
11:00−9s587882 0.0 1022279
14:00−7s477987 0.0 1021352
17:00−8sse3890100 0.0 1021252
20:00−8s5994100 0.0 1022266
21 january, thu
thu2123:00−8s5119599 0.0 1021306
02:00−6s61096100 0.1 1021337
05:00−5s61098100 0.0 1020325
08:00−4s61196100 0.1 1020334
11:00−2s7119189 0.0 1020353
14:00−1ssw6119063 0.0 1019363
17:00−2s5119314 0.0 1019254
20:00−2ssw612937 0.0 1019247
22 january, fri
fri2223:00−3ssw5109311 0.0 1018203
02:00−2ssw5109231 0.0 1017187
05:00−2ssw6109033 0.0 1016190
08:00−2s6118949 0.0 1016199
11:00+1ssw7138298 0.0 1015294
14:00+3ssw6137998 0.0 1014363
17:00+1s71484100 0.0 1013289
20:00+1s61489100 0.0 1012314